• în România
  • Lista ţărilor
  • Pe 7 zile
  • Temperatura apei
  • Hartă satelitară
  • Meteo pe hartă
  • Widget-uri
  • user-avatar
    Intrare

    Meteo pe oră la Kashino

    Astăzi, 24 Septembrie, Luni

    Timp Temperatura Precipitaţii Vânt Presiune Umiditate
    00:00 +8°C° 0 mm 3 m/s 742 mmHg 88%
    01:00 +8°C° 0 mm 3 m/s 742 mmHg 89%
    02:00 +8°C° 0 mm 3 m/s 742 mmHg 90%
    03:00 +7°C° 0 mm 3 m/s 742 mmHg 93%
    04:00 +7°C° 0 mm 3 m/s 742 mmHg 93%
    05:00 +5°C° 0 mm 3 m/s 742 mmHg 94%
    06:00 +5°C° 0 mm 3 m/s 742 mmHg 94%
    07:00 +7°C° 0 mm 3 m/s 742 mmHg 89%
    08:00 +9°C° 0 mm 3 m/s 742 mmHg 84%
    09:00 +10°C° 0 mm 3 m/s 742 mmHg 78%
    10:00 +11°C° 0 mm 4 m/s 742 mmHg 73%
    11:00 +12°C° 0 mm 5 m/s 741 mmHg 68%
    12:00 +13°C° 0 mm 5 m/s 741 mmHg 62%
    13:00 +13°C° 0.1 mm 5 m/s 741 mmHg 64%
    14:00 +11°C° 0.1 mm 6 m/s 740 mmHg 66%
    15:00 +10°C° 0 mm 6 m/s 740 mmHg 69%
    16:00 +10°C° 0.7 mm 6 m/s 739 mmHg 72%
    17:00 +9°C° 0.7 mm 7 m/s 738 mmHg 76%
    18:00 +9°C° 0.7 mm 7 m/s 738 mmHg 79%
    19:00 +9°C° 1.4 mm 8 m/s 737 mmHg 81%
    20:00 +9°C° 1.4 mm 8 m/s 736 mmHg 82%
    21:00 +8°C° 1.4 mm 9 m/s 735 mmHg 83%
    22:00 +10°C° 0.5 mm 9 m/s 734 mmHg 84%
    23:00 +10°C° 0.5 mm 9 m/s 734 mmHg 86%

    Mâine, 25 Septembrie, Marţi

    Timp Temperatura Precipitaţii Vânt Presiune Umiditate
    00:00 +10°C° 0.5 mm 9 m/s 733 mmHg 87%
    01:00 +10°C° 0.2 mm 8 m/s 733 mmHg 86%
    02:00 +9°C° 0.2 mm 7 m/s 733 mmHg 85%
    03:00 +9°C° 0.2 mm 7 m/s 733 mmHg 85%
    04:00 +8°C° 0 mm 7 m/s 733 mmHg 84%
    05:00 +8°C° 0 mm 6 m/s 733 mmHg 83%
    06:00 +7°C° 0 mm 6 m/s 733 mmHg 82%
    07:00 +6°C° 0 mm 7 m/s 734 mmHg 81%
    08:00 +8°C° 0 mm 7 m/s 734 mmHg 80%
    09:00 +8°C° 0 mm 7 m/s 734 mmHg 79%
    10:00 +8°C° 0.1 mm 7 m/s 735 mmHg 77%
    11:00 +9°C° 0.1 mm 7 m/s 735 mmHg 75%
    12:00 +9°C° 0.1 mm 7 m/s 736 mmHg 73%
    13:00 +9°C° 0.1 mm 7 m/s 736 mmHg 72%
    14:00 +9°C° 0.1 mm 7 m/s 737 mmHg 71%
    15:00 +9°C° 0.1 mm 7 m/s 738 mmHg 71%
    16:00 +8°C° 0.1 mm 7 m/s 738 mmHg 72%
    17:00 +8°C° 0.1 mm 7 m/s 739 mmHg 73%
    18:00 +6°C° 0.1 mm 7 m/s 739 mmHg 74%
    19:00 +7°C° 0 mm 6 m/s 740 mmHg 75%
    20:00 +7°C° 0 mm 6 m/s 741 mmHg 76%
    21:00 +5°C° 0 mm 6 m/s 741 mmHg 77%
    22:00 +5°C° 0 mm 6 m/s 742 mmHg 77%
    23:00 +5°C° 0 mm 6 m/s 742 mmHg 78%

    Poimâine, 26 Septembrie, Miercuri

    Timp Temperatura Precipitaţii Vânt Presiune Umiditate
    00:00 +5°C° 0 mm 5 m/s 743 mmHg 78%
    01:00 +5°C° 0 mm 5 m/s 743 mmHg 79%
    02:00 +5°C° 0 mm 5 m/s 744 mmHg 81%
    03:00 +3°C° 0 mm 5 m/s 745 mmHg 82%
    04:00 +3°C° 0 mm 5 m/s 745 mmHg 83%
    05:00 +3°C° 0 mm 5 m/s 746 mmHg 85%
    06:00 +2°C° 0 mm 5 m/s 746 mmHg 86%
    07:00 +3°C° 0 mm 5 m/s 747 mmHg 82%
    08:00 +3°C° 0 mm 5 m/s 748 mmHg 78%
    09:00 +4°C° 0 mm 6 m/s 748 mmHg 74%
    10:00 +6°C° 0 mm 5 m/s 749 mmHg 70%
    11:00 +6°C° 0 mm 5 m/s 749 mmHg 65%
    12:00 +7°C° 0 mm 5 m/s 750 mmHg 61%
    13:00 +8°C° 0 mm 5 m/s 750 mmHg 57%
    14:00 +8°C° 0 mm 5 m/s 750 mmHg 53%
    15:00 +9°C° 0 mm 5 m/s 750 mmHg 50%
    16:00 +8°C° 0 mm 4 m/s 750 mmHg 53%
    17:00 +8°C° 0 mm 3 m/s 750 mmHg 56%
    18:00 +7°C° 0 mm 3 m/s 750 mmHg 60%
    19:00 +5°C° 0 mm 3 m/s 750 mmHg 62%
    20:00 +5°C° 0 mm 3 m/s 750 mmHg 64%
    21:00 +4°C° 0 mm 3 m/s 750 mmHg 67%
    22:00 +4°C° 0 mm 4 m/s 749 mmHg 67%
    23:00 +4°C° 0 mm 4 m/s 749 mmHg 67%

    27 Septembrie, Joi

    Timp Temperatura Precipitaţii Vânt Presiune Umiditate
    00:00 +3°C° 0 mm 5 m/s 748 mmHg 67%
    01:00 +3°C° 0 mm 5 m/s 748 mmHg 67%
    02:00 +3°C° 0 mm 6 m/s 747 mmHg 68%
    03:00 +4°C° 0 mm 7 m/s 746 mmHg 68%
    04:00 +4°C° 0.2 mm 7 m/s 745 mmHg 68%
    05:00 +4°C° 0.2 mm 8 m/s 744 mmHg 68%
    06:00 +3°C° 0.2 mm 9 m/s 743 mmHg 68%
    07:00 +3°C° 0.9 mm 9 m/s 742 mmHg 71%
    08:00 +3°C° 0.9 mm 10 m/s 742 mmHg 74%
    09:00 +3°C° 0.9 mm 11 m/s 741 mmHg 77%
    10:00 +3°C° 0.7 mm 10 m/s 740 mmHg 79%
    11:00 +5°C° 0.7 mm 10 m/s 740 mmHg 81%
    12:00 +5°C° 0.7 mm 10 m/s 740 mmHg 83%
    13:00 +6°C° 0.3 mm 9 m/s 740 mmHg 83%
    14:00 +6°C° 0.3 mm 9 m/s 740 mmHg 83%
    15:00 +7°C° 0.3 mm 8 m/s 739 mmHg 84%
    16:00 +7°C° 0.1 mm 8 m/s 740 mmHg 83%
    17:00 +8°C° 0.1 mm 7 m/s 740 mmHg 83%
    18:00 +8°C° 0.1 mm 6 m/s 740 mmHg 82%
    19:00 +8°C° 0 mm 6 m/s 740 mmHg 84%
    20:00 +7°C° 0 mm 6 m/s 741 mmHg 85%
    21:00 +7°C° 0 mm 5 m/s 741 mmHg 87%
    22:00 +6°C° 0 mm 5 m/s 741 mmHg 87%
    23:00 +6°C° 0 mm 5 m/s 742 mmHg 86%

    28 Septembrie, Vineri

    Timp Temperatura Precipitaţii Vânt Presiune Umiditate
    00:00 +6°C° 0 mm 5 m/s 742 mmHg 86%
    01:00 +6°C° 0 mm 5 m/s 742 mmHg 87%
    02:00 +6°C° 0 mm 5 m/s 742 mmHg 88%
    03:00 +5°C° 0 mm 5 m/s 742 mmHg 89%
    04:00 +5°C° 0 mm 5 m/s 742 mmHg 90%
    05:00 +5°C° 0 mm 4 m/s 742 mmHg 91%
    06:00 +4°C° 0 mm 4 m/s 742 mmHg 93%
    07:00 +6°C° 0 mm 5 m/s 742 mmHg 88%
    08:00 +7°C° 0 mm 6 m/s 741 mmHg 84%
    09:00 +8°C° 0 mm 6 m/s 741 mmHg 80%
    10:00 +9°C° 0 mm 8 m/s 740 mmHg 80%
    11:00 +10°C° 0 mm 9 m/s 740 mmHg 80%
    12:00 +11°C° 0 mm 10 m/s 739 mmHg 80%
    13:00 +11°C° 0.1 mm 10 m/s 738 mmHg 80%
    14:00 +11°C° 0.1 mm 10 m/s 737 mmHg 81%
    15:00 +12°C° 0.1 mm 10 m/s 737 mmHg 82%
    16:00 +12°C° 0.2 mm 10 m/s 737 mmHg 82%
    17:00 +12°C° 0.2 mm 10 m/s 736 mmHg 82%
    18:00 +12°C° 0.2 mm 10 m/s 736 mmHg 82%
    19:00 +10°C° 0.3 mm 9 m/s 737 mmHg 82%
    20:00 +9°C° 0.3 mm 8 m/s 738 mmHg 81%
    21:00 +8°C° 0.3 mm 7 m/s 739 mmHg 81%
    22:00 +7°C° 0 mm 6 m/s 741 mmHg 82%
    23:00 +5°C° 0 mm 5 m/s 742 mmHg 84%

    29 Septembrie, Sâmbătă

    Timp Temperatura Precipitaţii Vânt Presiune Umiditate
    00:00 +4°C° 0 mm 4 m/s 743 mmHg 86%
    01:00 +4°C° 0 mm 4 m/s 743 mmHg 88%
    02:00 +3°C° 0 mm 3 m/s 744 mmHg 90%
    03:00 +2°C° 0 mm 3 m/s 745 mmHg 91%
    04:00 +3°C° 0 mm 2 m/s 745 mmHg 92%
    05:00 +3°C° 0 mm 2 m/s 746 mmHg 92%
    06:00 +3°C° 0 mm 1 m/s 746 mmHg 93%
    07:00 +4°C° 0 mm 1 m/s 746 mmHg 86%
    08:00 +5°C° 0 mm 1 m/s 747 mmHg 80%
    09:00 +7°C° 0 mm 1 m/s 747 mmHg 73%
    10:00 +8°C° 0 mm 1 m/s 747 mmHg 67%
    11:00 +9°C° 0 mm 1 m/s 747 mmHg 60%
    12:00 +9°C° 0 mm 2 m/s 748 mmHg 53%
    13:00 +9°C° 0 mm 2 m/s 747 mmHg 52%
    14:00 +10°C° 0 mm 2 m/s 747 mmHg 50%
    15:00 +10°C° 0 mm 2 m/s 747 mmHg 48%
    16:00 +10°C° 0 mm 1 m/s 747 mmHg 51%
    17:00 +10°C° 0 mm 1 m/s 747 mmHg 55%
    18:00 +9°C° 0 mm 1 m/s 747 mmHg 58%
    19:00 +8°C° 0 mm 1 m/s 748 mmHg 60%
    20:00 +7°C° 0 mm 1 m/s 748 mmHg 62%
    21:00 +7°C° 0 mm 1 m/s 749 mmHg 65%
    22:00 +6°C° 0 mm 1 m/s 749 mmHg 67%
    23:00 +6°C° 0 mm 1 m/s 749 mmHg 70%
    Arată mai mult